Location: Koslow
(50.3020°N, 18.5663°E)
Time: 08:15:18
(UTC+00:00)

STARLINK-1357 - Pass Details

Date: 04 October 2020
Orbit: 548 x 551 km, 53.0° (Epoch: 31 October)

Event Time Altitude Azimuth Distance (km) Brightness Sun altitude
Exits shadow 04:02:01 10° 289° (WNW) 1,868 5.7 -8.6°
Reaches altitude 10° 04:02:07 10° 289° (WNW) 1,830 5.7 -8.6°
Maximum altitude 04:06:16 71° 14° (NNE) 587 3.8 -8.0°
Drops below altitude 10° 04:10:25 10° 99° (E) 1,829 7.9 -7.3°
Sets 04:12:40 0° 102° (ESE) 2,722 9.1 -6.9°
